Temp
15 15 15 15 15 15 15 15 15 15 15 15 15 15 15 15 15 15 15 15 15 15 15 15 15 15 15 15 14 14 14 14 14 14 14 14 14 14 14 14 14 15 17 17 17 17 17 17 17 17 16 16 16 16 16 16 16 16 15 15 15 15 15 15 15 15 15 15 14
15 15 15 15 15 15 15 15 15 15 15 15 15 15 15 15 15 15 15 15 15 15 15 15 15 15 15 14 14 14 14 14 14 14 14 14 14 14 14 14 14 15 16 17 17 17 17 16 16 16 16 16 15 15 15 15 15 15 15 15 15 15 15 15 15 15 15 14 14
15 15 15 15 15 15 15 15 15 15 15 15 15 15 15 15 15 16 16 16 15 15 15 15 15 15 15 14 14 14 14 14 14 14 14 14 14 14 14 14 14 14 15 16 16 16 16 16 16 16 16 16 15 15 15 15 15 15 15 15 14 14 14 14 14 14 14 14 14
15 15 15 15 15 15 15 15 15 15 16 16 15 15 15 15 15 16 16 16 16 15 15 15 14 14 15 15 14 14 14 14 14 14 14 14 14 14 14 14 14 14 14 15 16 16 16 15 15 15 15 15 15 15 15 15 15 15 15 15 14 14 14 14 14 14 14 14 14
14 14 14 14 14 14 14 14 14 15 15 15 15 14 14 15 15 15 16 16 16 16 15 15 14 14 14 14 14 14 14 14 14 14 13 13 14 14 13 13 13 13 14 14 15 15 15 15 15 15 15 15 15 15 15 15 15 15 15 14 14 14 14 14 14 14 14 14 14
14 14 14 14 14 14 14 14 14 14 14 14 14 14 14 15 15 15 15 15 15 15 15 15 14 14 14 14 13 14 14 14 14 14 13 14 14 14 13 13 13 13 13 14 14 14 14 14 14 14 14 14 14 14 14 14 14 14 14 14 14 14 14 14 14 14 14 14 13
14 14 14 14 14 14 14 14 14 14 14 14 14 14 15 15 15 15 15 15 15 15 14 14 14 14 13 13 14 14 14 14 14 13 13 13 14 13 13 13 13 13 13 14 14 14 14 14 14 14 14 14 14 14 14 14 14 13 13 13 13 13 13 13 13 13 13 13 13
14 14 14 14 14 14 14 14 14 14 14 14 14 15 15 15 15 15 14 14 14 14 14 14 14 14 14 14 14 14 14 14 14 13 13 13 13 13 13 12 12 13 13 14 14 13 13 14 14 14 14 13 13 13 13 13 13 13 13 13 13 13 13 13 13 13 13 13 13
14 14 14 14 14 14 14 14 14 14 14 14 15 15 14 14 14 14 14 14 14 14 14 14 14 14 14 15 15 15 14 14 13 13 13 13 13 13 12 12 12 12 13 13 13 13 13 13 13 13 13 13 13 13 12 12 12 12 12 12 12 12 12 12 12 12 12 12 12
14 14 14 14 14 14 14 14 14 14 14 15 14 14 14 14 14 14 14 14 14 14 14 14 14 15 15 15 15 14 14 13 13 13 13 13 13 13 12 12 12 12 13 13 13 13 13 13 13 13 13 12 12 12 12 12 12 12 11 11 11 11 11 12 12 12 12 12 12
14 14 14 14 14 14 14 14 14 14 14 14 14 14 14 14 14 14 14 14 14 14 14 14 14 14 14 14 14 14 13 13 13 13 13 13 13 12 12 12 12 12 12 12 13 13 13 13 13 12 12 12 12 12 11 11 11 11 11 11 11 11 11 11 11 11 11 11 10
14 14 14 14 14 14 14 14 14 14 14 14 14 14 13 13 13 14 14 14 14 14 14 14 14 14 14 14 14 14 13 13 13 13 13 13 13 12 12 12 12 12 12 12 12 13 12 12 12 11 11 11 11 11 11 11 11 11 11 11 10 10 10 10 10 10 9 9 9
14 14 14 14 14 14 14 14 14 14 14 14 14 13 13 13 13 13 13 14 14 14 13 13 13 13 13 13 13 13 13 13 13 13 13 13 12 12 11 11 11 11 12 12 12 12 11 11 11 11 11 11 11 11 11 11 11 11 10 10 9 9 9 9 9 8 8 8 8
14 14 14 14 14 14 14 14 14 14 14 14 14 13 13 13 13 13 13 13 13 13 13 12 12 12 12 12 12 12 13 13 13 13 12 12 12 11 11 10 10 11 11 12 12 11 10 10 10 11 11 11 11 11 10 10 10 10 9 9 8 8 8 8 7 7 7 7 7
13 13 13 14 14 14 14 13 13 13 14 14 14 13 13 13 13 13 13 13 13 13 12 12 12 12 12 12 12 12 12 12 12 12 11 11 11 10 10 10 10 11 11 11 11 10 10 9 10 10 10 10 10 10 10 10 9 9 9 8 8 7 7 7 7 6 6 6 6
13 13 13 13 13 13 13 13 13 13 13 13 13 13 13 13 13 13 13 13 12 12 12 12 11 11 11 12 12 12 12 11 11 11 10 10 10 10 10 10 10 10 10 10 10 9 9 9 9 9 9 9 9 9 9 9 9 9 9 8 7 7 6 6 6 6 6 6 6
13 13 13 13 13 13 13 13 13 13 13 13 13 13 13 13 13 13 12 12 12 11 11 11 11 11 11 11 11 11 11 11 11 10 10 10 10 10 11 11 10 10 9 9 9 9 9 9 9 9 9 9 9 9 9 9 9 9 8 8 7 6 6 5 5 5 5 5 5
13 13 13 13 13 13 13 13 13 13 13 13 13 13 13 13 12 12 12 12 12 11 11 11 11 11 11 11 11 11 11 11 10 10 10 10 11 11 11 10 9 9 9 9 9 9 9 9 9 9 9 9 9 9 8 8 8 8 8 7 7 6 5 5 5 5 5 5 5
12 12 12 13 13 13 12 12 12 12 12 12 12 12 12 12 12 12 12 11 11 11 11 11 11 11 11 11 11 11 10 10 10 10 10 10 10 10 10 9 9 8 9 9 9 9 9 9 9 9 9 9 8 8 8 7 7 7 7 6 6 6 5 5 5 5 5 5 5
12 12 12 12 12 12 12 12 12 12 11 11 11 11 11 11 11 11 11 11 11 11 11 11 11 11 11 11 10 10 10 10 9 10 10 10 10 9 9 8 8 8 8 8 8 8 9 9 9 8 8 8 8 7 7 7 6 6 6 6 6 5 5 5 5 5 5 5 5
11 11 11 11 11 11 11 11 11 11 10 10 10 10 10 10 10 11 11 11 11 11 11 11 11 11 11 10 10 10 9 9 9 9 9 9 9 8 8 8 8 8 8 8 8 8 8 8 8 8 8 7 7 7 6 6 6 6 6 5 5 5 5 5 5 5 5 5 5
10 10 10 10 10 10 10 10 10 10 10 9 9 9 9 10 10 10 11 11 11 10 10 10 10 10 10 10 10 10 9 9 9 9 9 8 8 8 8 8 8 8 8 7 8 8 8 8 8 8 7 7 6 6 6 5 5 5 5 5 5 5 5 5 4 4 4 4 4
10 10 10 10 10 10 9 9 9 9 9 9 9 9 9 10 10 10 10 10 10 10 9 9 9 9 10 10 10 9 9 9 9 8 8 8 8 8 8 8 8 8 7 7 7 8 8 8 7 7 6 6 6 5 5 5 5 5 4 4 4 4 4 4 4 4 4 4 4
9 9 9 9 9 9 9 9 9 9 9 9 9 9 9 10 10 10 10 9 9 9 9 8 8 9 9 9 9 9 9 9 8 8 8 8 8 8 8 8 8 8 8 7 7 7 7 7 7 6 6 5 5 5 5 5 4 4 4 4 4 4 4 4 4 4 4 4 4
9 9 9 9 8 8 9 9 8 8 8 9 9 9 9 9 9 9 9 8 8 8 8 8 8 8 8 8 8 8 8 8 8 8 8 8 8 8 8 8 8 8 7 7 7 7 7 7 6 6 6 5 5 5 5 5 4 4 4 4 4 4 4 4 4 4 4 4 4
8 8 8 8 8 8 8 8 8 8 9 9 9 9 9 9 8 8 8 8 8 8 8 8 8 8 8 8 7 7 7 7 8 8 8 8 8 8 8 8 7 7 7 7 7 6 6 6 6 6 6 5 5 5 4 4 4 4 4 4 4 4 4 4 4 4 4 4 4
8 8 8 8 8 8 8 8 8 8 8 8 8 8 8 8 8 8 8 7 7 7 7 7 7 7 7 7 7 7 7 7 7 7 8 8 8 8 8 7 7 7 7 6 6 6 5 5 5 5 5 5 5 4 4 4 4 4 4 4 4 4 4 4 4 4 4 4 4
8 8 8 8 8 8 8 8 8 8 8 8 8 8 8 8 7 7 7 7 7 7 7 7 7 7 6 6 6 6 7 7 7 7 7 8 8 8 7 7 7 7 6 6 6 6 5 5 5 5 5 5 4 4 4 4 4 4 4 4 4 4 4 4 4 3 3 3 4
8 8 8 8 8 8 8 8 8 8 8 7 7 7 7 7 7 7 7 7 7 7 7 7 6 6 6 6 6 6 6 7 7 7 7 7 7 7 7 7 6 6 6 6 6 5 5 5 4 4 4 4 4 4 4 4 4 4 4 4 4 4 4 4 3 3 3 3 3
7 7 7 7 7 7 7 7 7 7 7 7 7 7 7 7 7 7 6 6 6 6 7 7 6 6 6 6 6 6 6 6 7 7 7 7 7 6 6 6 6 6 6 6 5 5 5 4 4 4 4 4 4 4 4 4 3 3 3 3 3 3 3 3 3 3 3 3 3
7 7 7 7 7 7 7 7 7 7 6 6 6 6 6 6 6 6 6 6 6 6 6 6 6 6 6 6 6 6 6 6 6 6 6 6 6 6 6 6 6 6 6 5 5 5 4 4 4 4 4 4 3 3 3 3 3 3 3 3 3 3 3 3 3 3 3 3 3
7 7 7 7 6 6 6 6 6 6 6 6 6 6 6 6 6 6 6 6 6 6 6 6 6 6 6 5 6 6 6 6 5 5 5 5 5 5 6 6 5 5 5 5 4 4 4 4 3 3 3 3 3 3 3 3 3 3 2 2 2 3 3 3 3 3 3 3 3
7 7 6 6 6 6 6 6 6 6 6 6 6 5 5 5 5 5 5 5 5 5 5 5 5 5 5 5 5 5 5 5 5 5 4 4 5 5 5 5 5 5 5 4 4 4 3 3 3 3 3 3 3 3 3 2 2 2 2 2 2 2 2 2 2 2 3 3 3
6 6 6 6 6 6 6 6 6 6 6 6 6 5 5 5 5 5 5 5 5 5 5 5 5 5 5 5 4 4 4 4 4 4 4 4 4 5 5 5 4 4 4 4 4 3 3 3 3 3 3 3 3 3 2 2 2 2 2 2 2 2 2 2 2 2 2 2 3
6 6 6 6 6 6 6 6 6 6 6 6 6 5 5 5 5 5 5 5 5 5 5 5 5 4 4 4 4 4 4 4 4 4 4 4 4 4 4 4 4 4 4 4 3 3 3 3 3 3 2 2 2 2 2 2 2 2 2 2 2 2 2 2 2 2 2 2 2
6 6 6 6 6 6 6 6 6 6 6 6 5 5 5 5 5 5 4 4 4 4 4 4 4 4 4 4 4 4 4 4 3 3 3 3 3 3 3 3 4 4 4 3 3 3 3 3 3 2 2 2 2 2 2 2 2 2 2 2 2 2 2 2 2 2 2 2 2
6 6 6 6 6 6 6 6 6 6 6 6 5 5 5 5 5 5 4 4 4 4 4 4 4 4 4 4 4 4 4 3 3 3 3 3 3 3 3 3 3 4 4 3 3 3 3 2 2 2 2 2 2 2 2 2 2 2 2 2 2 2 2 2 2 2 2 2 2
6 7 7 7 7 6 6 6 6 6 6 5 5 5 5 5 5 4 4 4 4 4 4 4 4 4 4 4 4 4 3 3 3 3 3 3 3 3 3 3 3 3 3 3 3 3 3 2 2 2 2 2 2 1 1 2 2 2 2 2 2 2 2 2 2 2 2 2 2
6 7 7 7 7 6 6 6 6 6 6 5 5 5 5 5 5 4 4 4 4 4 4 4 4 4 4 4 4 3 3 3 3 3 3 3 3 3 3 3 3 3 3 3 3 3 3 2 2 2 2 2 2 1 1 1 2 2 2 2 2 2 2 2 2 2 2 2 2
6 6 7 7 7 6 6 6 6 6 6 5 5 5 5 5 4 4 4 4 4 4 4 4 4 4 4 3 3 3 3 3 3 3 3 3 3 3 3 3 3 3 3 3 3 3 3 2 2 2 2 2 2 2 1 1 1 2 2 2 2 2 2 2 2 2 2 2 2
6 6 6 6 6 6 6 6 6 6 6 5 5 5 5 5 4 4 4 4 4 4 4 4 4 4 3 3 3 3 3 3 3 3 3 3 3 3 3 2 2 3 3 3 3 3 3 2 2 2 2 2 2 2 2 1 1 2 2 2 2 2 2 2 2 2 2 2 2
Height
760 761 762 764 765 766 767 767 768 768 768 769 771 773 774 776 779 781 782 783 783 784 785 785 786 787 789 791 794 797 799 799 799 800 802 802 803 804 804 804 801 799 799 800 801 802 804 805 806 808 809 810 812 813 814 814 815 816 817 818 818 818 819 819 819 819 819 820 820
759 760 762 764 765 766 767 767 767 767 767 768 769 771 774 776 779 780 781 782 782 783 784 784 785 786 787 789 793 796 798 799 800 801 802 803 804 804 804 804 803 801 800 799 800 801 802 804 805 807 808 809 811 812 813 814 814 815 816 817 817 818 818 818 819 819 819 819 820
758 759 761 763 764 764 765 766 765 765 764 765 767 770 773 775 778 779 780 781 781 782 783 783 784 785 786 788 791 794 796 798 800 801 802 803 804 804 804 804 803 802 801 799 799 800 801 803 804 806 807 808 809 810 811 812 813 814 815 815 816 816 816 817 817 818 818 819 819
758 759 760 761 762 763 764 764 763 762 762 764 767 771 774 775 777 779 780 781 781 781 782 782 783 783 785 787 791 794 795 797 799 800 801 802 802 803 804 804 803 801 800 798 798 799 800 802 804 805 806 807 808 809 810 811 812 813 813 814 814 814 815 815 816 816 817 817 817
757 758 759 760 761 763 763 762 761 761 763 766 770 773 775 776 777 779 779 780 780 781 781 782 782 783 785 788 791 793 794 795 797 799 800 800 801 802 804 804 803 801 799 798 797 799 800 801 803 804 805 806 808 809 810 811 811 812 812 813 813 814 814 814 815 815 816 816 816
757 757 758 759 760 762 763 762 762 762 764 768 772 774 775 776 777 778 778 779 779 780 781 782 783 784 787 789 791 792 793 793 796 799 800 799 800 802 804 805 804 801 799 798 797 798 799 801 802 803 804 806 807 808 809 810 811 811 812 813 813 813 814 814 814 815 815 815 816
756 757 758 758 759 760 762 763 763 764 765 769 771 773 774 776 777 777 778 778 779 780 781 783 784 786 788 789 790 790 790 792 795 799 800 799 799 802 805 806 804 802 799 798 798 798 799 800 801 803 804 805 806 808 809 810 810 811 812 812 813 813 813 814 814 814 814 815 815
755 756 757 758 759 760 762 763 763 764 765 768 770 772 774 775 776 777 777 778 779 780 781 783 784 785 787 787 788 788 789 792 795 798 799 798 800 803 805 806 804 801 799 798 798 798 799 800 801 802 804 805 806 807 809 809 810 811 811 812 812 812 813 813 813 814 814 814 815
755 756 758 759 760 761 762 763 763 764 765 767 769 771 773 774 775 776 777 778 779 780 781 782 783 784 784 785 786 788 790 793 796 798 798 798 800 803 805 805 803 800 798 798 798 798 799 800 801 802 804 805 806 807 808 809 810 810 811 811 812 812 812 813 813 813 814 814 814
755 756 758 759 761 762 762 763 764 764 765 767 769 770 771 772 773 774 776 777 778 779 779 780 781 782 783 784 786 788 791 793 795 796 796 798 800 803 804 804 803 800 798 797 797 798 799 800 801 803 804 805 806 807 808 809 809 810 811 811 811 812 812 812 812 813 813 813 814
754 756 758 759 760 762 762 763 764 764 765 766 768 769 770 771 772 774 775 776 777 777 778 779 780 781 782 784 786 788 790 792 794 794 795 797 800 802 803 803 802 800 798 797 797 797 799 800 802 804 804 805 806 807 808 809 809 810 810 811 811 811 811 812 812 812 812 813 813
754 755 757 758 759 761 762 763 764 764 765 766 767 768 769 770 771 772 774 774 775 776 778 779 780 781 782 783 785 787 789 790 792 793 794 796 798 800 801 801 800 799 798 797 796 797 799 802 804 804 805 806 806 807 808 808 809 809 810 810 810 811 811 811 811 811 812 812 812
754 755 756 757 759 760 761 762 763 764 764 765 766 767 768 769 770 771 772 773 774 776 778 779 780 781 782 783 784 785 786 788 789 791 793 795 797 798 799 799 799 798 797 796 796 798 801 803 804 805 805 806 806 807 807 808 808 808 809 809 809 809 810 810 810 810 811 811 812
754 754 755 757 758 759 760 761 762 763 764 765 766 767 768 768 769 770 771 773 774 776 777 779 780 781 782 783 784 784 785 786 787 789 791 793 794 796 797 797 797 796 796 795 797 800 803 804 805 805 805 805 806 806 806 807 807 807 808 808 808 809 809 809 809 810 810 811 811
753 754 755 756 757 759 759 760 761 762 763 764 765 766 767 768 769 769 771 773 774 776 777 779 780 781 782 783 784 784 785 786 787 788 789 791 793 794 795 795 795 795 796 797 799 801 803 804 805 804 804 805 805 805 805 806 806 807 807 808 808 808 808 808 809 809 810 810 810
753 754 754 755 757 758 759 760 761 762 763 764 764 766 767 767 768 769 771 773 774 776 777 778 779 781 782 783 784 784 785 786 788 789 790 791 792 793 794 794 794 796 797 799 800 802 803 804 804 804 804 804 804 805 805 805 805 806 806 806 807 807 807 808 808 809 809 809 809
752 753 754 755 756 757 758 759 760 761 762 763 764 765 766 767 768 769 770 772 774 775 777 778 779 780 781 782 783 784 785 786 788 789 790 790 791 792 792 793 795 797 798 799 800 801 802 802 803 803 804 804 804 804 804 804 805 805 805 805 806 806 807 807 808 808 808 808 809
752 753 754 755 756 757 758 759 760 761 762 763 764 765 766 767 768 769 770 772 774 775 776 778 779 780 781 781 783 784 785 786 787 788 789 789 790 791 792 794 795 796 797 798 799 800 800 801 802 802 803 804 804 804 804 804 804 804 804 805 805 806 806 807 807 807 807 807 807
751 753 754 755 756 757 758 759 760 761 762 763 764 765 766 767 767 768 770 772 774 775 776 777 778 779 780 781 782 783 784 786 787 788 788 789 789 791 793 794 795 796 797 798 798 799 799 800 801 802 802 803 803 804 804 804 804 804 804 804 805 805 805 806 806 806 806 806 806
751 753 754 755 755 757 758 759 760 761 762 763 764 765 766 767 767 768 769 771 774 775 776 777 778 779 779 780 782 783 784 786 787 787 788 789 789 791 792 794 794 795 796 797 798 799 799 800 800 801 802 802 803 803 804 804 804 805 804 804 804 804 805 805 805 805 805 805 805
751 753 754 754 755 756 758 759 760 761 762 763 764 766 767 768 768 768 769 771 773 775 776 777 777 778 779 780 781 783 784 785 786 787 787 788 789 791 792 793 794 795 796 797 798 798 799 799 799 800 801 802 803 803 804 804 804 804 804 804 804 804 804 804 804 804 804 804 804
751 753 754 754 755 756 757 759 760 761 762 764 765 766 767 768 768 769 770 772 774 775 776 777 777 778 779 779 780 782 783 784 785 786 787 788 789 790 791 792 793 794 795 797 797 798 798 799 799 800 800 801 802 803 804 804 804 804 804 803 803 803 803 804 804 804 804 804 804
752 753 754 754 755 756 757 759 760 761 763 764 765 766 767 768 769 770 771 773 774 776 777 777 778 779 779 779 780 781 782 783 784 785 787 788 789 790 790 791 793 794 795 796 797 797 797 798 799 799 800 801 802 803 803 803 803 803 803 802 802 802 803 803 803 803 803 804 804
753 754 754 755 756 757 758 759 760 762 763 764 766 767 768 769 770 771 772 774 775 777 777 778 778 779 779 780 780 781 782 783 784 785 786 787 788 789 790 791 792 794 794 795 796 796 797 797 798 799 799 800 801 801 802 802 802 802 802 802 802 802 802 802 803 803 803 803 803
754 755 756 757 757 758 759 760 761 763 764 765 766 767 768 769 770 772 773 774 776 777 778 778 779 779 780 780 781 782 783 783 784 784 785 787 788 788 789 790 792 793 794 795 795 796 796 797 797 798 799 799 800 800 800 800 800 800 800 801 801 802 802 802 802 802 802 803 803
755 756 757 758 759 759 760 761 762 764 765 766 767 768 769 770 771 772 774 775 776 777 778 779 779 779 780 781 782 782 783 784 784 784 785 786 787 788 789 789 791 793 794 794 795 795 795 796 797 797 798 799 799 799 799 799 799 800 800 800 801 801 801 802 802 802 802 802 802
756 757 758 759 760 760 761 762 763 764 765 766 767 769 769 770 772 773 774 775 776 777 778 779 779 780 781 781 782 783 783 784 784 784 785 786 786 787 788 789 791 792 793 794 794 794 795 796 796 797 797 798 799 799 799 799 799 799 800 800 800 801 801 801 801 801 801 801 801
757 758 759 761 761 762 763 764 764 766 767 768 769 769 770 772 773 774 775 776 777 778 779 779 780 781 781 782 783 783 783 784 784 784 785 785 786 787 788 789 791 792 792 793 794 794 795 795 796 796 797 797 798 798 798 799 799 799 799 800 800 800 800 800 800 801 801 800 800
758 759 761 762 763 763 764 765 766 767 768 769 770 771 772 773 774 774 775 776 777 778 779 779 780 781 782 783 783 783 784 784 784 784 785 785 786 787 789 789 791 791 792 793 793 794 794 795 795 796 796 797 797 798 798 799 799 799 799 799 799 799 800 800 800 800 800 800 800
759 760 762 763 764 765 766 767 768 769 770 771 772 772 773 774 775 775 776 777 777 778 779 779 780 781 782 783 783 783 784 784 784 784 785 786 787 788 789 790 791 791 792 792 793 794 794 795 795 796 796 797 797 798 798 799 799 799 799 799 799 799 799 799 799 799 799 799 799
761 762 763 764 765 766 767 769 769 770 771 772 773 774 774 775 775 776 777 777 778 778 779 780 780 781 782 782 783 783 783 784 784 785 786 787 787 788 789 790 791 791 792 792 793 794 794 795 795 796 796 797 797 798 798 798 799 799 799 799 799 799 799 799 799 798 798 798 798
762 763 764 765 766 768 769 770 771 772 773 774 774 775 775 776 776 777 777 777 778 779 779 780 780 781 782 782 783 783 784 784 785 786 787 787 788 789 789 790 791 791 792 793 793 794 794 795 796 796 796 797 797 798 798 798 798 798 798 799 798 798 798 798 798 798 798 798 798
764 765 766 767 768 769 770 771 772 773 774 775 775 776 776 777 777 777 777 778 778 779 779 780 781 781 782 782 783 784 784 785 786 786 787 788 788 789 789 790 791 792 792 793 794 794 795 795 796 796 796 797 797 797 798 798 798 798 798 798 798 798 798 797 797 797 797 797 797
765 766 767 768 769 770 771 772 773 774 775 775 776 776 777 777 777 777 778 778 779 779 780 780 781 782 782 783 784 784 785 786 786 787 788 788 789 789 790 790 791 792 793 793 794 794 795 795 796 796 796 796 797 797 797 798 798 798 798 798 798 797 797 797 797 797 797 797 797
766 767 768 769 770 771 772 773 774 774 775 776 776 776 777 777 777 777 778 778 779 780 780 781 782 782 783 784 784 785 786 786 787 788 788 789 789 789 790 791 792 792 793 794 794 794 795 795 796 796 796 796 796 797 797 797 797 797 797 797 797 797 797 796 796 796 796 796 796
767 768 769 770 771 772 773 774 774 775 775 776 776 776 777 777 777 777 778 779 779 780 781 781 782 783 783 784 785 785 786 787 787 788 789 789 789 790 791 791 792 792 793 793 794 794 795 795 795 795 795 795 796 796 796 797 797 797 797 797 797 796 796 796 796 796 796 796 796
768 769 770 771 772 772 773 774 774 775 775 776 776 776 777 777 778 778 778 779 779 780 781 781 782 783 783 784 785 785 786 787 788 788 789 789 790 790 791 791 792 792 792 793 793 794 794 795 795 795 795 795 795 796 796 796 796 796 796 796 796 796 796 796 795 795 795 795 795
769 770 770 771 772 773 773 774 774 775 775 776 776 777 777 777 778 778 779 779 779 780 781 781 782 783 783 784 785 785 786 787 788 788 789 789 790 790 791 791 791 792 792 793 793 793 794 794 794 794 795 795 795 795 796 796 796 796 796 796 796 796 795 795 795 795 795 794 794
769 770 771 771 772 773 773 774 774 775 775 776 776 777 777 777 778 778 779 779 779 780 781 781 782 783 783 784 784 785 786 787 787 788 789 789 789 790 790 791 791 791 792 792 793 793 793 794 794 794 794 795 795 795 795 795 795 796 796 796 796 795 795 795 795 794 794 794 794
769 770 771 772 772 773 773 774 774 775 775 776 776 777 777 778 778 778 779 779 780 780 781 781 782 783 783 784 784 785 786 786 787 788 788 789 789 789 790 791 791 791 792 792 792 793 793 793 794 794 794 794 795 795 795 795 795 795 795 795 795 795 795 795 794 794 794 794 793
769 770 771 771 772 773 773 774 774 775 775 776 776 777 777 778 778 778 779 779 780 780 781 782 782 783 783 784 784 785 785 786 787 788 788 789 789 789 790 790 791 791 791 792 792 792 792 793 793 794 794 794 794 795 795 795 795 795 795 795 795 795 795 795 794 794 794 794 793
Wind_Speed
22 21 19 18 18 17 17 16 15 15 14 14 14 13 11 11 11 11 10 9 9 10 11 13 16 18 19 19 21 23 25 25 24 25 26 26 26 25 23 21 20 19 18 17 16 15 15 14 15 15 15 15 14 14 14 14 14 13 13 13 13 12 12 12 12 12 12 11 11
25 25 25 24 23 21 19 19 17 16 14 13 11 11 12 13 14 14 11 9 8 9 9 11 13 15 16 16 18 20 22 23 23 24 25 26 25 23 22 21 19 17 17 17 16 15 15 15 16 16 16 16 16 15 15 15 14 13 11 11 11 11 10 10 10 10 10 10 10
26 28 30 31 30 26 22 19 18 15 12 10 9 10 12 14 17 18 16 12 10 8 9 10 11 12 13 15 18 20 20 19 19 21 23 23 23 21 19 19 18 16 16 16 16 16 16 16 17 17 18 17 17 17 17 17 16 14 12 12 12 12 12 12 12 12 12 11 11
21 24 27 30 31 29 25 19 16 13 10 8 9 10 12 13 15 18 18 15 12 10 9 9 9 10 11 13 16 19 19 17 17 18 19 20 20 19 19 19 19 19 18 17 17 17 17 18 18 19 18 18 18 18 18 18 18 17 16 16 16 16 15 15 15 15 15 14 14
16 18 20 23 25 25 23 18 13 11 11 10 10 11 11 9 10 11 13 13 13 12 11 10 9 8 9 11 13 15 16 16 16 16 17 18 19 20 21 20 21 21 21 20 19 19 19 19 19 19 19 18 17 17 17 18 18 18 18 18 17 17 16 16 16 16 15 15 15
14 14 15 17 19 21 20 15 12 12 13 13 12 11 9 8 8 8 9 10 11 11 11 10 9 9 9 11 12 12 11 12 14 16 18 18 18 20 21 22 21 20 20 20 19 19 20 20 19 18 18 17 17 16 17 17 17 17 16 16 16 16 16 15 15 15 14 14 14
14 14 14 14 16 18 18 15 12 13 14 13 11 9 8 8 9 10 10 10 11 11 11 11 11 11 11 11 11 9 8 10 14 18 19 17 18 20 22 22 20 20 20 20 20 19 19 18 17 17 16 16 16 16 16 16 16 15 15 15 15 15 15 14 14 14 13 12 12
13 13 14 14 15 16 16 14 12 12 12 11 10 9 9 10 11 11 11 12 12 12 12 12 12 12 12 12 11 10 10 12 16 19 20 17 18 20 22 21 20 19 19 19 18 18 17 15 15 14 14 15 15 15 16 16 15 14 14 14 14 14 14 14 13 12 12 12 11
13 13 13 14 15 15 15 13 12 12 11 11 10 10 11 11 12 12 13 13 13 13 12 12 12 12 12 12 12 13 14 16 19 20 18 17 18 20 21 20 19 18 17 17 16 15 13 12 12 12 13 14 14 15 15 15 14 13 13 12 12 12 12 12 12 11 11 12 12
15 14 15 15 15 15 14 13 13 12 11 11 11 11 12 12 13 13 14 14 13 12 12 12 12 13 13 13 15 16 18 19 19 18 16 17 19 21 20 19 18 16 15 14 13 12 11 10 10 11 12 13 13 13 13 13 12 11 10 10 10 10 10 11 11 11 11 12 12
16 17 17 17 17 16 16 15 14 13 11 11 11 12 12 13 14 15 15 14 13 12 12 13 14 15 16 17 19 20 20 20 19 17 17 18 20 21 19 17 15 14 13 12 11 10 10 10 11 11 11 11 11 10 10 9 9 8 8 9 9 9 10 10 10 10 10 10 10
18 19 19 19 19 18 18 17 16 14 13 11 12 13 14 15 16 17 16 15 15 14 15 16 17 19 21 22 23 23 23 21 20 19 19 20 21 20 17 15 13 12 12 11 10 10 10 10 9 9 9 8 8 8 7 7 7 7 8 8 8 8 8 8 8 7 7 8 7
19 20 20 20 20 19 19 18 17 16 14 13 13 15 16 17 17 17 17 17 17 17 18 20 21 22 24 25 26 26 25 24 22 22 22 22 21 18 15 13 12 11 11 11 11 10 8 7 7 8 8 7 7 6 6 6 6 6 7 7 7 7 7 7 6 6 6 6 6
20 21 21 20 20 19 19 19 18 17 16 16 16 16 16 17 17 17 17 18 19 20 22 23 23 24 25 25 26 26 25 25 24 24 23 22 19 17 14 12 10 9 9 10 10 9 8 8 8 8 7 7 7 6 6 6 5 5 5 5 5 5 5 5 5 5 5 5 5
21 21 21 21 20 20 20 20 20 19 18 18 17 17 17 17 16 17 17 19 20 22 24 24 24 24 24 24 24 24 24 23 22 22 21 19 17 15 12 10 9 7 7 8 9 9 9 9 9 8 7 7 6 6 6 5 5 5 5 5 4 4 4 4 5 4 4 4 4
22 22 22 22 22 22 22 21 21 21 20 19 19 18 17 17 17 17 18 20 22 23 24 25 25 24 23 23 22 22 21 20 19 18 17 16 15 13 11 9 8 7 8 9 10 10 10 10 8 7 7 6 6 6 6 6 5 5 5 4 4 4 4 4 4 4 4 4 4
23 23 23 23 23 23 22 22 22 22 21 21 20 19 19 19 18 18 19 21 22 24 25 25 25 24 23 22 20 19 19 18 17 16 15 14 13 11 10 9 9 9 10 11 11 11 10 8 7 7 6 6 6 6 6 6 6 6 5 4 4 4 4 4 4 4 3 3 3
24 23 22 22 22 22 22 22 22 22 22 21 21 20 20 20 20 20 20 22 23 25 25 25 24 23 22 20 19 17 17 16 16 15 14 13 11 10 9 10 11 12 12 12 11 10 9 8 7 7 7 6 6 6 6 5 6 5 5 5 4 4 3 3 3 3 3 3 3
23 23 23 22 22 22 22 22 22 22 22 22 21 22 22 22 22 22 22 23 25 25 26 25 23 22 20 19 18 16 15 15 15 14 13 11 10 10 11 12 13 13 12 11 10 10 9 9 8 7 7 6 6 6 5 5 6 6 5 5 5 4 3 3 3 3 3 3 3
22 22 22 22 22 21 22 22 22 22 22 22 22 23 23 24 24 25 26 26 26 26 25 23 22 21 19 18 17 16 15 14 13 13 12 11 11 11 12 13 12 12 11 11 11 10 10 9 9 8 7 6 6 6 6 6 6 6 6 5 4 3 2 3 3 3 3 3 3
20 20 20 20 20 21 21 21 22 22 22 23 24 24 25 26 26 27 28 28 26 25 23 22 21 20 19 18 17 16 15 13 12 11 11 11 12 12 12 12 11 11 11 11 11 10 10 9 8 7 6 6 6 7 7 7 7 6 5 4 3 2 2 3 3 3 3 3 3
19 18 18 19 20 20 21 22 22 23 24 24 25 26 26 27 27 28 28 26 24 23 21 21 20 19 18 17 16 15 14 13 12 11 11 12 12 12 12 11 11 12 12 12 11 10 9 7 7 6 6 7 7 7 7 6 5 4 3 2 2 2 3 3 3 2 2 3 4
18 18 18 19 20 21 22 23 24 24 25 25 26 26 27 27 27 26 25 24 22 21 21 20 19 18 17 16 15 15 15 14 13 12 12 13 13 13 12 12 12 12 11 11 10 9 8 7 7 7 7 7 7 7 6 5 4 3 2 1 2 2 3 4 3 3 3 3 4
19 19 19 20 21 22 23 24 25 25 26 26 26 26 26 26 25 24 23 22 21 20 20 20 19 18 17 16 15 15 15 15 15 15 14 14 14 14 13 12 12 11 11 10 9 8 7 7 7 7 7 7 6 5 4 4 3 3 2 2 2 3 4 4 5 5 4 4 4
20 20 20 21 22 23 24 25 26 26 25 25 25 25 25 24 23 22 21 21 20 20 19 19 18 18 17 16 16 15 15 16 16 16 16 15 15 14 13 13 12 11 10 9 8 7 7 7 7 7 6 5 4 3 2 2 2 2 2 2 2 3 3 4 5 6 6 5 5
20 21 21 22 23 24 25 25 25 25 25 25 24 24 23 22 22 21 21 21 20 20 19 19 18 18 18 17 17 17 16 16 16 16 16 16 15 14 13 13 12 12 11 9 8 7 6 6 5 5 4 3 3 2 1 1 2 2 2 2 3 3 3 3 4 5 6 6 6
21 22 22 23 23 24 24 24 25 25 24 24 23 23 22 21 21 21 21 20 20 19 19 18 18 18 18 17 17 17 17 17 16 16 15 15 14 14 13 13 12 12 10 9 8 7 6 5 4 4 3 2 2 2 2 2 2 3 3 3 3 3 4 4 4 5 6 6 7
22 22 23 23 23 23 23 23 23 23 23 22 22 21 21 20 20 20 20 20 20 19 19 18 18 18 17 17 17 17 17 16 16 15 14 13 13 13 13 12 12 11 10 9 8 7 6 5 4 3 3 2 2 2 2 3 3 3 4 4 4 4 5 5 5 5 6 6 6
22 23 23 23 22 22 22 22 22 22 22 21 21 20 20 20 20 20 19 19 19 19 19 18 17 17 17 17 17 16 16 15 14 14 13 13 12 12 12 11 11 10 9 9 8 7 6 5 4 4 4 4 3 3 3 3 3 3 3 4 4 5 5 5 5 6 6 6 6
22 23 23 23 23 22 22 22 22 22 21 20 20 19 19 19 18 18 18 18 18 18 18 17 16 16 16 16 15 15 14 13 12 12 12 12 12 11 11 10 10 9 9 8 8 7 6 6 5 5 5 5 4 4 4 3 3 3 2 3 4 4 5 5 5 5 6 6 6
21 22 22 22 22 22 21 21 21 21 20 19 18 18 17 17 16 16 17 17 17 17 16 15 15 15 15 14 14 13 13 12 11 11 10 10 11 11 10 10 9 9 9 8 8 7 7 6 6 6 6 5 5 4 4 3 2 1 2 2 3 3 4 4 4 5 5 6 6
20 20 21 21 21 20 20 20 19 18 17 16 15 15 14 14 15 15 16 16 16 16 16 15 15 14 14 13 13 12 12 12 11 11 10 10 10 11 10 10 9 9 9 9 9 8 8 8 8 7 7 6 6 5 4 2 1 1 1 2 2 3 3 3 4 4 5 5 5
19 19 19 19 18 18 17 16 15 15 14 13 12 12 12 13 14 15 16 16 16 16 16 15 15 14 14 13 13 13 13 12 12 11 11 11 11 11 11 11 10 10 10 10 10 9 9 8 8 7 7 7 6 6 4 2 1 1 1 1 2 2 3 3 3 4 4 5 5
18 18 18 18 17 16 15 14 13 12 11 11 11 11 11 12 14 15 16 16 16 15 15 15 14 14 13 13 14 13 13 12 11 10 11 11 12 12 12 12 12 12 12 11 10 10 9 8 8 7 7 6 6 4 3 2 2 1 2 2 2 2 2 2 3 3 4 5 5
18 17 17 16 15 14 13 12 11 11 10 10 10 10 11 11 12 14 15 16 15 15 14 14 13 12 12 12 12 12 11 10 9 9 10 11 12 13 13 13 13 13 13 12 11 10 9 8 8 7 6 6 5 3 2 2 2 2 2 2 1 1 2 2 3 3 4 5 5
18 17 16 15 14 13 12 11 11 10 10 10 10 10 10 11 11 12 14 15 14 14 13 13 12 12 11 11 11 11 10 9 9 9 10 11 12 13 14 14 14 14 13 12 11 10 9 8 8 8 7 6 5 3 3 2 3 3 3 2 1 1 2 2 3 3 4 5 5
17 16 15 14 13 12 11 11 10 9 9 9 9 9 9 10 10 10 12 13 13 12 11 11 11 11 10 10 10 10 9 9 9 9 10 11 11 12 13 14 14 13 12 11 11 10 9 8 8 8 7 6 5 4 3 3 3 3 2 2 2 2 2 2 2 3 4 5 6
16 15 14 14 13 12 11 10 9 9 8 8 8 8 8 9 9 9 10 10 10 10 10 10 10 10 10 10 9 9 9 8 8 9 10 11 11 11 11 13 14 13 11 10 10 9 8 8 8 8 7 6 5 4 3 3 3 2 2 2 2 2 2 2 2 3 4 5 6
16 15 14 13 13 12 10 9 8 8 8 8 7 7 7 7 7 8 8 8 8 8 8 9 9 9 9 9 9 9 8 8 7 8 10 11 11 11 12 12 13 12 11 9 9 9 8 8 8 8 7 6 5 4 3 3 3 3 3 3 3 3 2 2 2 3 4 5 6
16 15 13 12 11 10 9 8 7 7 7 7 7 6 6 6 6 7 7 7 7 7 7 8 8 9 9 10 9 9 8 7 7 8 10 11 12 13 13 13 13 12 11 10 9 9 9 9 9 8 8 7 6 5 4 4 3 3 3 3 3 3 3 2 2 3 3 4 5
15 14 12 11 10 9 8 7 7 6 6 6 6 6 6 6 6 6 6 6 6 6 7 7 8 9 9 10 9 9 8 8 8 9 10 12 13 14 14 13 13 12 11 10 9 9 9 9 9 9 9 8 7 6 5 4 4 4 4 4 3 3 3 3 3 3 3 3 4
Wind_Direction
216 214 212 212 210 207 201 194 189 182 175 174 181 195 212 228 243 251 254 252 249 240 229 220 215 213 214 218 226 235 241 245 246 243 239 238 237 236 233 225 213 202 196 196 196 199 202 206 209 210 211 210 209 210 212 215 216 217 218 220 222 223 223 222 221 220 219 219 219
214 214 215 214 209 202 196 192 190 187 182 180 184 198 214 226 236 243 249 250 247 240 231 223 218 215 213 216 224 233 240 244 245 244 242 240 240 238 234 228 218 205 195 192 193 196 199 202 204 205 204 204 202 202 205 209 210 210 212 214 215 214 212 211 211 212 211 212 214
213 216 219 220 216 209 199 191 191 190 188 190 198 208 217 223 229 235 242 252 257 251 238 227 221 219 220 224 230 235 237 239 240 240 239 238 237 234 229 223 215 204 193 188 190 193 196 198 200 202 203 203 203 204 206 210 208 204 201 203 205 204 202 201 202 201 201 202 205
202 208 213 218 219 215 207 196 187 182 183 190 205 213 215 217 222 228 236 248 257 257 246 231 222 221 225 230 233 234 232 229 230 231 230 227 227 226 223 217 209 201 194 189 190 191 193 195 198 200 203 205 207 209 212 213 212 208 205 205 206 205 204 205 205 205 205 206 208
190 195 203 211 214 211 204 196 179 166 166 174 192 204 211 215 219 226 234 243 248 251 250 240 230 224 222 222 222 220 218 217 221 222 219 215 216 220 221 216 209 204 199 194 190 190 192 193 194 197 200 204 208 211 213 214 212 210 209 209 208 208 207 208 209 209 210 211 213
195 196 198 201 202 201 198 191 173 158 156 166 180 192 204 221 232 237 239 238 238 240 239 234 228 218 209 205 203 201 202 207 216 219 216 211 212 217 219 217 208 200 194 190 187 187 189 191 192 194 197 200 203 206 208 208 207 207 207 207 207 207 208 209 210 212 213 216 218
198 197 195 193 191 193 193 188 169 154 154 163 174 186 202 217 225 227 226 223 219 216 214 215 214 211 207 207 208 210 213 217 223 225 221 212 211 215 217 215 206 197 190 186 184 184 185 188 189 190 193 196 197 198 200 201 202 203 204 205 206 208 209 211 213 216 218 222 226
190 188 186 184 182 181 178 173 161 154 156 163 173 184 195 202 205 206 204 201 198 197 199 203 208 213 218 224 230 235 236 232 230 228 224 214 211 213 213 210 201 192 185 181 180 180 181 184 186 187 188 190 191 193 194 196 198 201 204 207 209 212 214 217 221 224 227 231 235
177 177 178 179 179 176 170 164 160 159 161 167 176 184 189 191 191 190 189 189 190 192 197 203 211 219 225 230 233 233 231 228 225 223 219 211 210 209 208 203 196 186 179 176 176 177 179 182 186 188 190 190 190 192 194 197 199 203 208 211 215 219 223 227 230 234 237 240 243
169 171 174 177 179 178 174 170 169 169 170 173 180 185 187 187 188 187 187 188 190 193 197 203 208 212 215 218 220 221 219 217 215 210 206 205 205 205 202 199 195 189 182 175 175 178 182 187 191 193 193 193 193 194 198 201 204 210 217 223 227 230 234 237 239 241 243 245 246
170 172 174 176 177 177 175 175 176 177 177 179 182 183 184 185 186 188 188 188 188 189 193 197 198 198 199 202 207 210 211 209 206 202 199 199 201 202 200 197 194 192 187 178 177 182 190 198 201 198 194 194 195 199 203 209 215 224 233 239 241 241 241 242 244 245 247 248 248
174 176 177 177 176 176 176 177 179 180 181 181 180 180 180 182 184 186 187 187 186 188 190 193 193 193 193 195 198 201 203 204 203 201 198 198 200 200 198 191 186 184 183 183 187 195 201 202 199 195 193 195 199 206 214 223 231 236 241 243 244 242 241 241 242 243 244 247 247
178 178 179 179 178 178 179 180 181 181 180 179 178 178 178 180 182 184 185 186 188 189 190 190 189 188 188 188 189 191 194 197 198 197 196 196 196 194 190 183 177 176 180 189 196 201 201 197 197 197 198 202 208 217 225 231 235 235 235 235 234 233 234 237 236 236 238 240 240
180 179 178 179 179 181 183 184 183 181 179 177 177 177 177 179 182 184 186 187 188 189 188 187 185 184 183 183 182 183 184 186 187 187 186 186 185 182 178 175 172 173 176 182 187 191 195 196 197 199 203 209 216 223 227 227 225 222 219 218 218 220 224 229 230 232 233 231 229
179 177 177 177 178 181 183 183 183 180 178 176 176 176 177 178 181 185 187 187 186 187 186 184 182 181 180 178 177 176 175 174 173 171 170 170 169 168 167 165 163 164 166 169 175 182 188 190 191 193 200 208 214 217 216 212 207 203 201 200 201 205 211 216 217 220 220 219 219
177 175 175 175 176 178 180 181 180 179 178 177 177 178 178 178 180 184 186 186 185 185 183 180 177 174 172 171 170 168 166 164 163 161 160 159 159 160 160 157 157 160 165 169 173 178 182 182 181 182 187 192 196 195 193 191 191 193 193 193 194 199 204 207 206 207 211 215 217
174 173 174 174 175 176 178 178 179 178 178 178 179 180 180 179 179 182 185 187 185 182 178 175 171 168 164 163 163 164 163 162 161 161 161 161 160 160 161 161 164 167 170 171 172 173 174 174 173 173 174 176 176 175 175 177 182 186 188 188 187 191 196 203 205 207 213 219 221
171 172 174 175 176 177 178 178 178 179 179 179 180 180 181 180 178 179 182 186 183 178 173 169 166 164 161 160 160 161 162 163 162 162 162 161 161 163 166 169 170 170 170 171 171 171 170 170 170 171 171 172 172 172 172 173 176 178 179 179 181 186 196 212 223 229 233 235 239
169 171 173 176 178 179 179 179 179 178 178 178 178 178 178 177 175 174 175 177 176 172 168 164 162 160 159 157 156 156 157 158 158 157 156 156 158 163 168 171 171 170 170 169 169 169 169 169 170 172 174 176 177 177 177 178 179 178 178 178 180 189 206 232 253 264 266 265 271
168 170 171 174 177 177 177 177 176 175 174 173 172 171 170 170 170 168 166 166 167 166 164 161 158 155 153 152 150 149 150 151 152 151 150 151 156 161 165 167 167 167 166 165 165 165 164 164 166 169 173 176 180 182 183 185 185 183 182 182 185 198 227 260 277 283 284 285 289
166 167 168 169 170 170 170 170 170 169 167 166 165 164 163 163 162 161 160 161 161 161 160 158 156 153 151 150 150 149 149 149 149 149 148 151 156 160 162 162 161 160 161 161 162 161 160 160 163 167 173 180 184 186 186 186 185 186 187 188 193 221 260 282 289 289 290 293 299
161 162 162 162 162 163 163 162 162 161 160 159 159 158 158 157 156 156 156 157 157 157 156 154 153 152 152 153 154 154 154 152 151 151 152 155 158 159 159 159 158 158 159 161 161 160 160 162 167 173 180 184 186 186 184 182 183 185 189 195 212 255 280 290 289 280 279 290 298
156 157 157 157 157 157 157 156 155 155 154 154 154 154 153 153 152 152 151 152 152 153 152 151 150 150 151 153 156 157 157 156 155 155 157 160 160 160 160 160 160 161 164 165 166 167 168 169 174 178 182 184 186 185 182 181 182 182 184 202 238 265 279 285 276 264 264 276 287
152 153 152 152 152 152 152 152 151 150 149 149 149 149 149 148 148 147 147 148 150 151 152 151 151 151 151 153 156 158 159 159 159 159 161 163 164 163 162 163 165 168 171 174 176 177 178 177 177 178 179 181 184 186 188 191 191 189 191 209 243 263 271 273 265 259 258 261 268
146 146 146 146 146 147 147 147 147 146 146 146 146 146 145 145 145 146 147 150 152 154 155 155 154 154 154 155 157 160 162 162 162 162 162 164 165 166 166 167 170 174 179 182 184 185 185 185 183 180 179 179 181 188 201 212 214 216 222 232 245 254 261 265 263 262 262 263 261
140 141 141 143 143 143 143 144 145 145 146 146 146 145 145 146 147 149 151 154 156 157 158 157 157 156 156 157 159 160 162 163 163 163 163 164 165 166 168 170 174 179 183 186 186 185 186 189 192 192 190 186 183 183 197 223 238 250 255 258 255 250 248 252 262 265 266 264 261
137 138 139 141 142 141 141 143 144 145 145 146 146 146 147 148 150 152 155 157 158 158 158 157 157 157 158 158 160 161 161 161 162 162 164 165 167 168 171 174 177 181 185 186 183 179 177 184 198 210 215 211 199 194 204 228 246 256 260 262 262 257 253 252 259 263 264 262 260
136 137 139 139 138 138 139 141 142 143 144 145 146 147 148 150 152 154 156 158 158 158 157 157 157 157 158 158 160 161 161 161 162 163 165 168 171 172 175 177 180 184 186 185 180 175 174 183 201 220 229 223 210 211 224 239 251 258 260 263 264 264 262 262 263 266 265 263 260
137 138 137 137 136 136 137 138 139 141 143 145 146 147 148 151 153 155 157 158 158 158 158 157 157 158 158 158 160 161 162 162 163 165 168 171 173 176 178 180 183 186 187 185 180 177 177 185 197 214 230 239 240 242 244 249 253 259 261 264 267 268 269 268 265 265 265 264 262
137 137 136 136 135 135 136 137 139 141 142 143 145 146 148 150 152 155 157 158 159 159 159 158 158 159 160 161 162 163 162 162 164 167 170 173 176 180 182 185 188 190 190 186 182 180 183 187 192 206 225 244 251 253 253 254 253 256 262 267 271 271 270 269 266 265 263 262 260
135 136 136 135 134 134 135 137 138 139 140 141 143 145 147 149 152 155 158 160 161 160 160 161 162 163 165 167 168 168 167 167 167 168 172 177 182 187 191 193 195 196 193 186 182 182 185 187 194 207 223 238 248 255 257 252 246 250 264 275 278 278 276 272 268 265 262 260 256
135 135 134 133 132 133 134 134 135 135 136 138 141 144 148 152 156 159 162 163 163 162 162 164 165 167 169 171 172 172 172 171 171 173 177 184 190 195 197 197 197 196 192 184 181 182 184 187 197 210 221 231 240 247 249 236 217 238 277 283 285 285 282 278 271 267 263 259 254
136 136 135 134 133 133 132 132 131 131 133 136 141 146 151 156 160 162 164 164 164 163 164 165 167 169 170 171 171 171 171 173 175 179 185 190 195 198 198 195 193 190 187 181 181 182 184 187 199 211 222 229 233 235 229 196 164 186 256 268 273 277 279 276 272 269 267 264 258
138 138 137 136 135 135 134 133 132 132 134 137 141 146 151 154 157 159 161 162 163 163 164 166 168 170 172 173 171 170 171 174 179 185 190 193 196 196 194 190 187 185 182 179 179 181 183 187 197 211 224 232 233 225 205 172 168 192 217 231 245 261 270 270 266 263 261 261 257
142 141 140 140 139 138 137 137 136 136 136 137 138 141 144 148 150 153 157 159 160 161 163 165 168 171 172 174 174 173 172 173 179 186 191 191 190 188 186 184 183 182 180 178 179 181 183 187 194 207 223 236 239 229 207 193 193 203 213 219 229 251 262 263 257 252 251 252 251
147 146 144 143 143 142 142 141 141 141 139 137 137 137 138 141 144 148 153 157 158 159 162 164 165 166 167 169 171 173 174 175 180 185 187 184 181 180 180 180 180 181 181 180 180 182 185 188 194 206 222 237 244 242 234 224 212 210 211 217 233 253 260 258 253 247 244 242 242
151 151 150 148 148 147 147 147 145 143 140 137 136 135 136 139 140 146 152 156 156 158 161 164 164 165 167 169 169 171 175 179 182 183 181 178 176 176 178 180 180 182 183 183 183 184 187 189 195 206 220 233 243 249 249 243 226 215 215 229 241 249 256 260 255 249 243 238 235
156 156 155 155 154 153 153 151 148 143 139 138 136 137 138 141 142 147 153 157 156 156 160 164 166 167 169 171 171 171 175 179 185 185 181 177 177 177 179 181 182 184 186 188 187 187 188 191 197 207 219 228 240 249 252 250 237 224 222 235 241 245 252 263 263 258 249 242 235
159 160 161 161 160 159 157 154 149 145 142 140 140 141 143 145 147 151 157 160 161 161 163 166 170 172 173 173 173 174 178 184 188 189 186 182 181 181 182 183 185 187 190 194 194 192 190 193 200 209 219 227 235 240 244 245 243 236 230 232 239 243 250 263 271 271 264 255 244
162 163 165 166 167 166 163 158 154 150 148 146 145 146 149 153 154 157 160 162 166 169 171 173 176 178 179 179 178 181 186 191 194 195 192 188 186 185 185 185 188 191 194 199 201 199 195 194 201 210 219 224 225 227 232 240 243 241 237 233 236 241 246 253 266 274 275 272 260
166 168 170 173 176 176 174 169 164 160 157 156 154 154 155 158 162 165 167 169 173 175 178 180 183 185 186 187 188 191 194 196 197 197 196 194 191 189 187 188 192 195 198 201 206 206 202 197 200 207 214 219 219 221 226 234 237 239 238 234 231 235 243 249 252 258 267 274 275